DW5375 Decatur Island WA US current weather conditions

sailwx.info

Wind from 360

Air temperature 16.7° C
Dewpoint 13.4° C

Last reported at 2019-Sep-15 00:16 UTC.
Time now 2019-Sep-15 08:13 UTC

Location: N 48°31' W 122°50'.
View on Google Maps.

See reports from other nearby stations

  
Tides and Currents Weather Stations Pressure Air Temp Water Temp Dewpoint Dewpoint Depression Visibility Wind Speed Wind Dir Waves Ship Positions
date/time (UTC)wind fromknots sea level pressurealtimeterstation pressurevisibilityair tempwater tempwave heightnotes
2019-Sep-15 00:16 360 16.7
2019-Sep-15 00:01 360 16.7
2019-Sep-14 23:45 360 16.7
2019-Sep-14 23:30 360 16.7
2019-Sep-14 23:01 188 16.7
2019-Sep-14 22:30 153 16.7
2019-Sep-14 22:00 139 16.1
2019-Sep-14 21:45 360 16.1
2019-Sep-14 21:30 360 16.1
2019-Sep-14 21:16 197 16.7
2019-Sep-14 21:00 360 16.7
2019-Sep-14 20:45 360 16.1
2019-Sep-14 20:30 148 16.7
2019-Sep-14 20:15 360 16.7
2019-Sep-14 20:00 360 16.7
2019-Sep-14 19:45 360 15.6
2019-Sep-14 19:30 360 15.6
2019-Sep-14 19:15 360 15.6
2019-Sep-14 19:02 186 16.1
2019-Sep-14 18:47 170 16.7
2019-Sep-14 18:31 360 16.1
2019-Sep-14 18:17 192 15.6
2019-Sep-14 18:01 360 15.6
2019-Sep-14 17:47 360 15.0
2019-Sep-14 17:31 167 15.0
2019-Sep-14 17:16 360 15.0
2019-Sep-14 17:01 360 14.4
2019-Sep-14 16:46 186 15.0
2019-Sep-14 16:31 360 14.4
2019-Sep-14 16:16 360 14.4
2019-Sep-14 16:01 172 14.4
2019-Sep-14 15:45 360 14.4
2019-Sep-14 15:30 360 13.9
2019-Sep-14 15:15 360 13.3
2019-Sep-14 15:00 169 13.3
2019-Sep-14 14:45 169 12.8
2019-Sep-14 14:31 169 12.8
2019-Sep-14 14:15 169 12.8
2019-Sep-14 14:00 169 12.8
2019-Sep-14 13:45 169 12.8
2019-Sep-14 13:30 169 12.8
2019-Sep-14 13:15 169 12.8
2019-Sep-14 13:00 169 13.3
2019-Sep-14 12:45 169 12.8
2019-Sep-14 12:30 169 12.8
2019-Sep-14 12:15 169 13.3
2019-Sep-14 12:00 169 13.3
2019-Sep-14 11:45 169 12.8
2019-Sep-14 11:30 169 12.8
2019-Sep-14 11:15 169 12.8
2019-Sep-14 11:01 169 12.8
2019-Sep-14 10:45 166 12.8
2019-Sep-14 10:30 175 12.8
2019-Sep-14 10:15 175 12.8
2019-Sep-14 10:00 175 12.8
2019-Sep-14 09:45 176 12.8
2019-Sep-14 09:30 180 12.8
2019-Sep-14 09:15 168 13.3
2019-Sep-14 09:00 360 12.8
2019-Sep-14 08:46 186 12.8
2019-Sep-14 08:31 186 12.8
2019-Sep-14 08:17 186 12.8
2019-Sep-14 08:01 186 13.3
2019-Sep-14 07:46 186 13.3
2019-Sep-14 07:31 186 13.3
2019-Sep-14 07:16 186 13.3
2019-Sep-14 07:01 186 13.3
2019-Sep-14 06:47 186 13.9
2019-Sep-14 06:32 186 13.9
2019-Sep-14 06:16 186 14.4
2019-Sep-14 06:01 186 14.4
2019-Sep-14 05:46 186 14.4
2019-Sep-14 05:32 186 15.0
2019-Sep-14 05:16 186 15.0
2019-Sep-14 05:01 186 15.0
2019-Sep-14 04:46 186 15.0
2019-Sep-14 04:31 360 14.4
2019-Sep-14 04:16 360 15.0
2019-Sep-14 04:01 360 15.0
2019-Sep-14 03:45 360 15.0
2019-Sep-14 03:32 360 15.0
2019-Sep-14 03:16 360 15.6
2019-Sep-14 03:01 360 15.6
2019-Sep-14 02:46 360 15.6
2019-Sep-14 02:32 360 15.6
2019-Sep-14 02:17 360 15.6
2019-Sep-14 02:00 360 16.1
2019-Sep-14 01:45 360 16.7
2019-Sep-14 01:31 187 16.7
2019-Sep-14 01:16 187 17.2
2019-Sep-14 01:00 187 17.2
2019-Sep-14 00:46 187 17.8
2019-Sep-14 00:30 187 18.9
2019-Sep-14 00:16 187 19.4
2019-Sep-14 00:00 187 19.4
2019-Sep-13 23:46 187 19.4
2019-Sep-13 23:31 187 19.4
2019-Sep-13 23:16 187 18.9
2019-Sep-13 23:01 188 18.9
2019-Sep-13 22:45 188 19.4
2019-Sep-13 22:31 188 19.4
2019-Sep-13 22:15 188 18.3
2019-Sep-13 22:00 188 17.8
2019-Sep-13 21:45 360 17.8
2019-Sep-13 21:31 168 17.8
2019-Sep-13 21:15 169 18.3
2019-Sep-13 21:01 172 17.8
2019-Sep-13 20:45 178 17.2
2019-Sep-13 20:30 360 16.7
2019-Sep-13 20:15 188 17.2
2019-Sep-13 20:00 163 16.7
2019-Sep-13 19:45 171 16.1
2019-Sep-13 19:30 360 16.1
2019-Sep-13 19:15 171 16.1
2019-Sep-13 19:00 169 16.1
2019-Sep-13 18:45 360 16.1
2019-Sep-13 18:30 360 15.6
2019-Sep-13 18:15 166 15.6
2019-Sep-13 18:00 167 15.0
2019-Sep-13 17:45 171 14.4
2019-Sep-13 17:30 198 15.0
2019-Sep-13 17:17 188 15.6
2019-Sep-13 17:01 360 15.0
2019-Sep-13 16:46 360 14.4
2019-Sep-13 16:31 360 15.0
2019-Sep-13 16:16 177 15.0
2019-Sep-13 16:02 191 14.4
2019-Sep-13 15:47 191 13.3
2019-Sep-13 15:31 191 13.3
2019-Sep-13 15:16 191 13.3
2019-Sep-13 15:01 191 12.8
2019-Sep-13 14:46 191 12.8
2019-Sep-13 14:32 191 12.8
2019-Sep-13 14:16 191 13.3
2019-Sep-13 14:01 191 13.3
2019-Sep-13 13:46 191 12.8
2019-Sep-13 13:31 191 12.8
2019-Sep-13 13:15 176 13.3
2019-Sep-13 13:01 360 13.3
2019-Sep-13 12:45 161 13.9
2019-Sep-13 12:31 179 13.3
2019-Sep-13 12:16 177 13.3
2019-Sep-13 12:01 360 13.3
2019-Sep-13 11:46 360 12.8
2019-Sep-13 11:30 360 12.8
2019-Sep-13 11:16 360 12.8
2019-Sep-13 11:00 360 12.8
2019-Sep-13 10:45 360 12.8
2019-Sep-13 10:30 360 13.3
2019-Sep-13 10:15 360 12.8
2019-Sep-13 10:00 184 12.2
2019-Sep-13 09:45 360 12.8
2019-Sep-13 09:31 184 12.2
2019-Sep-13 09:15 184 12.8
2019-Sep-13 09:00 184 12.8
2019-Sep-13 08:45 184 12.8
2019-Sep-13 08:30 184 12.8
2019-Sep-13 08:15 184 12.8
2019-Sep-13 08:00 360 12.8